User: anonymous   Login
Location: Unspecified
(0.0000°N, 0.0000°E)
Time: 19:45:48
(UTC+02:00)
Language:

NATO 3D Rocket - Orbit

View from above orbital plane
View from above orbital plane
View from above satellite
View from above satellite

Ground track
Ground track

The orbit data is extracted from the following two-line orbital elements,

1 15392U 84115B   15208.41124223  .00000139  00000-0 -18373-4 0  9994
2 15392 021.4896 227.5738 1034843 138.9955 356.1864 12.45502440397828
Epoch (UTC): 27 July 2015 09:52:11
Eccentricity: 0.1034843
inclination: 21.4896°
perigee height: 670 km
apogee height: 2297 km
right ascension of ascending node: 227.5738°
argument of perigee: 138.9955°
revolutions per day: 12.45502440
mean anomaly at epoch: 356.1864°
orbit number at epoch: 39782

The dashed part of the orbit path shows where the satellite is in the earth's shadow,  

DLR